World > North America > United States > New York > Tracy Creek

Tracy Creek, NY Hourly Weather Conditions

Feedback E-mail the Weather

Quick WX

Tracy Creek, NY Weather Maps

°F °C°F °C
Tracy Creek Weather Map
UTC Time: 2/3/2023, 16:23
Your Time:

Tracy Creek, NY Regional Weather

Expires:202302031700;;736661
ASUS41 KPHI 031610
RWRPHI

REGIONAL WEATHER ROUNDUP
NATIONAL WEATHER SERVICE MOUNT HOLLY NJ
1100 AM EST FRI FEB 03 2023

NOTE:  "FAIR" INDICATES FEW OR NO CLOUDS BELOW 12,000 FEET WITH NO
SIGNIFICANT WEATHER AND/OR OBSTRUCTIONS TO VISIBILITY.

 * = STATION DOES NOT REPORT PRECIPITATION (E.G. RAIN, SNOW, ETC.) 
        OR FOG.


PAZ001-021-NYZ056-072-MDZ011-DCZ001-031700-
OTHER NEARBY LOCATIONS
  
CITY           SKY/WX    TMP DP  RH WIND       PRES   REMARKS
HARRISBURG     MOSUNNY   26  -2  29 NW22G32   30.13R WCI  12          
STATE COLLEGE  LGT SNOW  16   1  53 NW21G33   30.11R WCI  -2          
WILLIAMSPORT   CLOUDY    19  -3  38 NW20G30   30.12R WCI   3          
BINGHAMTON     SNOW       4  -2  76 N16G29    29.99R VSB 1/2 WCI -15  
NEW YORK CITY  SUNNY     22  -5  30 NW18G36   30.03F WCI   7          
BALTIMORE      MOSUNNY   31   2  29 NW20G30   30.13R WCI  19          
WASHINGTON DC  MOSUNNY   32   4  30 NW22G37   30.18R WCI  19          

$$
  

SKY/WX - Weather  TMP - Temperature  DP - Dew Point  RH - Humidity
WIND - Wind Direction/Speed PRES - Barometric Pressure VSB - Visibility
WCI - Wind Chill Index E13G22 Wind - East Wind 13 mph/Gusts of 22 mph

Trending Headlines

Trending Entertainment Headlines

Tracy Creek Radar Loop

Use the map search tool if you want to place a location marker on the radar map...

Tracy Creek Quick Facts

National Two Day Weather Forecast


E-mail the Tracy Creek Weather Forecast

Voice your opinion or tell us about page issues...